| time (UTC) | temp F | wind direction | speed knots | gust knots | rain 1hr in | rain 24hr in | rain mn in | humidity % | barometer mb |
| 20260507013010 | 41 | 355 | 0.9 | 2.6 | 0.00 | 0.46 | 0.33 | 98 | 950.9 |
| 20260507011509 | 41 | 355 | 1.7 | 4.3 | 0.00 | 0.46 | 0.33 | 98 | 951.0 |
| 20260507010008 | 41 | 355 | 0.9 | 2.6 | 0.00 | 0.46 | 0.33 | 98 | 950.8 |
| 20260507004507 | 41 | 325 | 1.7 | 5.2 | 0.00 | 0.46 | 0.33 | 98 | 950.6 |
| 20260507003005 | 41 | 15 | 0.9 | 4.3 | 0.00 | 0.46 | 0.33 | 98 | 950.6 |
| 20260507001508 | 41 | 69 | 0.9 | 5.2 | 0.00 | 0.46 | 0.33 | 98 | 950.2 |
| 20260507000010 | 42 | 355 | 0.9 | 3.5 | 0.00 | 0.46 | 0.33 | 98 | 950.2 |
| 20260506234506 | 42 | 346 | 2.6 | 5.2 | 0.00 | 0.46 | 0.33 | 98 | 949.9 |
| 20260506233001 | 42 | 5 | 2.6 | 7.0 | 0.00 | 0.46 | 0.33 | 98 | 949.7 |
| 20260506231559 | 42 | 360 | 3.5 | 8.7 | 0.00 | 0.46 | 0.33 | 98 | 949.8 |
| 20260506224607 | 42 | 346 | 3.5 | 7.8 | 0.00 | 0.47 | 0.33 | 98 | 949.3 |
| 20260506223053 | 42 | 347 | 7.0 | 11.3 | 0.00 | 0.47 | 0.33 | 98 | 949.1 |
| 20260506221554 | 43 | 336 | 5.2 | 10.4 | 0.00 | 0.47 | 0.33 | 98 | 949.0 |
| 20260506214605 | 44 | 51 | 5.2 | 11.3 | 0.01 | 0.47 | 0.33 | 98 | 948.8 |
| 20260506213045 | 44 | 30 | 4.3 | 10.4 | 0.01 | 0.47 | 0.33 | 98 | 948.8 |
| 20260506211541 | 44 | 344 | 5.2 | 16.5 | 0.01 | 0.47 | 0.33 | 98 | 948.4 |
| 20260506204538 | 44 | 355 | 5.2 | 13.0 | 0.01 | 0.47 | 0.32 | 98 | 947.9 |
| 20260506203036 | 45 | 295 | 2.6 | 6.1 | 0.01 | 0.47 | 0.32 | 98 | 947.5 |
| 20260506201536 | 45 | 355 | 5.2 | 11.3 | 0.02 | 0.47 | 0.32 | 98 | 947.4 |
| 20260506194600 | 46 | 342 | 5.2 | 11.3 | 0.01 | 0.47 | 0.31 | 98 | 947.4 |
| 20260506193049 | 46 | 5 | 5.2 | 8.7 | 0.01 | 0.47 | 0.31 | 98 | 947.3 |
| 20260506191545 | 46 | 355 | 4.3 | 8.7 | 0.01 | 0.46 | 0.30 | 98 | 947.1 |
| 20260506184532 | 47 | 339 | 3.5 | 9.6 | 0.02 | 0.47 | 0.30 | 98 | 946.8 |
| 20260506183031 | 47 | 360 | 6.1 | 12.2 | 0.02 | 0.47 | 0.30 | 97 | 946.6 |
| 20260506181527 | 48 | 5 | 5.2 | 8.7 | 0.01 | 0.46 | 0.28 | 97 | 946.5 |
| 20260506174521 | 55 | 321 | 1.7 | 5.2 | 0.00 | 0.45 | 0.28 | 98 | 946.0 |
| 20260506173020 | 55 | 260 | 1.7 | 7.8 | 0.01 | 0.45 | 0.28 | 98 | 946.1 |
| 20260506171523 | 55 | 319 | 5.2 | 11.3 | 0.01 | 0.45 | 0.28 | 98 | 946.0 |
| 20260506164517 | 55 | 273 | 7.0 | 10.4 | 0.02 | 0.45 | 0.28 | 97 | 946.2 |
| 20260506163011 | 54 | 280 | 6.1 | 12.2 | 0.02 | 0.44 | 0.27 | 97 | 946.2 |
| 20260506161512 | 54 | 246 | 6.1 | 11.3 | 0.04 | 0.44 | 0.27 | 97 | 946.4 |
| 20260506154504 | 54 | 253 | 6.1 | 12.2 | 0.05 | 0.43 | 0.26 | 97 | 946.5 |
| 20260506153003 | 54 | 246 | 8.7 | 13.0 | 0.05 | 0.42 | 0.25 | 96 | 946.6 |
| 20260506151503 | 54 | 252 | 8.7 | 13.9 | 0.04 | 0.40 | 0.23 | 96 | 946.6 |
| 20260506144505 | 54 | 250 | 7.8 | 13.0 | 0.06 | 0.38 | 0.21 | 96 | 946.3 |
| 20260506143007 | 54 | 238 | 7.8 | 10.4 | 0.09 | 0.37 | 0.20 | 96 | 946.6 |
| 20260506141505 | 53 | 234 | 6.1 | 9.6 | 0.12 | 0.36 | 0.19 | 96 | 946.5 |
| 20260506134557 | 53 | 253 | 6.1 | 12.2 | 0.17 | 0.33 | 0.16 | 96 | 946.8 |
| 20260506133102 | 53 | 240 | 6.1 | 11.3 | 0.16 | 0.28 | 0.12 | 96 | 947.1 |
| 20260506131549 | 53 | 270 | 7.8 | 13.9 | 0.13 | 0.25 | 0.08 | 95 | 947.5 |
| 20260506124507 | 53 | 235 | 7.8 | 12.2 | 0.06 | 0.22 | 0.14 | 95 | 947.2 |
| 20260506123007 | 53 | 263 | 6.1 | 11.3 | 0.03 | 0.19 | 0.11 | 95 | 947.1 |
| 20260506121507 | 53 | 252 | 5.2 | 8.7 | 0.03 | 0.18 | 0.10 | 95 | 947.0 |
| 20260506114556 | 53 | 250 | 3.5 | 6.1 | 0.03 | 0.17 | 0.09 | 94 | 947.3 |
| 20260506113052 | 53 | 270 | 5.2 | 8.7 | 0.04 | 0.16 | 0.08 | 93 | 947.3 |
| 20260506111551 | 53 | 227 | 5.2 | 8.7 | 0.05 | 0.16 | 0.08 | 94 | 947.4 |
| 20260506104547 | 53 | 250 | 3.5 | 7.0 | 0.04 | 0.14 | 0.06 | 94 | 947.6 |
| 20260506103042 | 53 | 241 | 1.7 | 5.2 | 0.03 | 0.13 | 0.05 | 93 | 947.4 |
| 20260506101548 | 53 | 263 | 4.3 | 8.7 | 0.01 | 0.11 | 0.03 | 93 | 947.3 |
| 20260506094540 | 53 | 261 | 3.5 | 7.0 | 0.00 | 0.10 | 0.02 | 94 | 947.0 |
| 20260506093039 | 52 | 244 | 3.5 | 7.0 | 0.00 | 0.10 | 0.02 | 95 | 947.0 |
| 20260506091539 | 52 | 258 | 3.5 | 6.1 | 0.00 | 0.10 | 0.02 | 96 | 947.2 |
| 20260506084541 | 50 | 286 | 0.9 | 2.6 | 0.00 | 0.10 | 0.02 | 95 | 947.5 |
| 20260506083037 | 51 | 157 | 0.0 | 0.9 | 0.00 | 0.10 | 0.02 | 95 | 947.4 |
| 20260506081536 | 50 | 155 | 0.0 | 0.9 | 0.00 | 0.10 | 0.02 | 95 | 947.3 |
| 20260506073038 | 51 | 149 | 0.0 | 4.3 | 0.00 | 0.10 | 0.02 | 94 | 947.4 |
| 20260506071537 | 51 | 142 | 0.0 | 2.6 | 0.00 | 0.10 | 0.02 | 94 | 947.5 |
| 20260506061533 | 50 | 166 | 2.6 | 4.3 | 0.00 | 0.10 | 0.02 | 92 | 948.0 |
| 20260506044532 | 50 | 161 | 0.9 | 7.0 | 0.00 | 0.10 | 0.02 | 93 | 949.2 |
| 20260506043035 | 50 | 156 | 1.7 | 5.2 | 0.00 | 0.10 | 0.02 | 93 | 949.1 |
| 20260506041530 | 50 | 161 | 0.0 | 1.7 | 0.00 | 0.10 | 0.02 | 92 | 949.4 |
| 20260506034528 | 51 | 107 | 2.6 | 7.8 | 0.00 | 0.10 | 0.02 | 91 | 949.8 |
| 20260506033023 | 52 | 109 | 4.3 | 9.6 | 0.00 | 0.10 | 0.02 | 92 | 949.6 |
| 20260506031520 | 53 | 94 | 1.7 | 6.1 | 0.00 | 0.10 | 0.02 | 93 | 949.6 |
| 20260506024517 | 54 | 109 | 2.6 | 9.6 | 0.00 | 0.10 | 0.02 | 93 | 949.6 |
| 20260506023020 | 55 | 61 | 4.3 | 9.6 | 0.00 | 0.10 | 0.02 | 93 | 949.6 |
| 20260506021523 | 56 | 94 | 0.9 | 7.8 | 0.00 | 0.10 | 0.02 | 93 | 949.3 |
| 20260506014507 | 57 | 17 | 0.9 | 3.5 | 0.00 | 0.10 | 0.02 | 92 | 949.3 |